{"data":{"norad_id":64132,"epoch":"2026-05-24T17:22:44.789664Z","epoch_age_seconds":109183,"freshness":"FRESH","line1":"1 64132U 25111K   26144.72412951  .00147849  00000+0  11306-2 0  9999","line2":"2 64132  43.0033 235.8699 0004413 274.8661  85.1703 15.70930667 58640","mean_motion":15.70930667,"eccentricity":0.0004413,"inclination_deg":43.0033,"raan_deg":235.8699,"arg_perigee_deg":274.8661,"mean_anomaly_deg":85.1703,"bstar":0.0011306,"rev_number":5864,"period_min":91.66540766245,"perigee_km":353.26405200349,"apogee_km":359.20780955219,"semimajor_km":6734.3729307778,"source":"CELESTRAK","updated_at":"2026-05-25T13:38:20.273105Z"}}